User: anonymous   Login
Location: Deep South Regional Star Gaze
(30.9929°N, 90.9586°W)
Time: 14:40:31
(UTC-06:00)
Language:

H-2A R/B - Orbit

View from above orbital plane
View from above orbital plane
View from above satellite
View from above satellite

Ground track
Ground track

The orbit data is extracted from the following two-line orbital elements,

1 26899U 01038B   14329.51637115  .00001703  00000-0  52469-3 0   816
2 26899 028.0621 082.6352 7150866 292.9904 030.8307 02.44117365113468
Epoch (UTC): 25 November 2014 12:23:34
Eccentricity: 0.7150866
inclination: 28.0621°
perigee height: 260 km
apogee height: 33581 km
right ascension of ascending node: 82.6352°
argument of perigee: 292.9904°
revolutions per day: 2.44117365
mean anomaly at epoch: 30.8307°
orbit number at epoch: 11346

The dashed part of the orbit path shows where the satellite is in the earth's shadow,  

DLR